This is the latest recevied weather packets stored in our database for station/object DL7MAP-13. If no packets are shown the sender has not sent any weather packets the latest 10 day(s).
| Time | Temp. | Humidity | Pressure | Rain* | Wind** | Luminosity | Snow |
|---|---|---|---|---|---|---|---|
| 1777515187 | 2.22° C | 78% | 1026.7 hPa | - | - | - | - |
| 1777514287 | 3.33° C | 76% | 1026.6 hPa | - | - | - | - |
| 1777513387 | 3.33° C | 76% | 1026.8 hPa | - | - | - | - |
| 1777512487 | 3.89° C | 75% | 1026.6 hPa | - | - | - | - |
| 1777511587 | 3.33° C | 75% | 1026.7 hPa | - | - | - | - |
| 1777510687 | 3.33° C | 73% | 1026.7 hPa | - | - | - | - |
| 1777509787 | 2.22° C | 74% | 1026.5 hPa | - | - | - | - |
| 1777508887 | 2.22° C | 74% | 1026.6 hPa | - | - | - | - |
| 1777507986 | 2.22° C | 74% | 1026.6 hPa | - | - | - | - |
| 1777507087 | 2.22° C | 73% | 1026.5 hPa | - | - | - | - |
| 1777506187 | 2.22° C | 72% | 1026.5 hPa | - | - | - | - |
| 1777505287 | 2.78° C | 71% | 1026.6 hPa | - | - | - | - |
| 1777504386 | 3.33° C | 70% | 1026.4 hPa | - | - | - | - |
| 1777503487 | 3.89° C | 69% | 1026.5 hPa | - | - | - | - |
| 1777502587 | 4.44° C | 68% | 1026.5 hPa | - | - | - | - |
| 1777501687 | 4.44° C | 65% | 1026.2 hPa | - | - | - | - |
| 1777500787 | 4.44° C | 64% | 1026.3 hPa | - | - | - | - |
| 1777499887 | 4.44° C | 63% | 1026.2 hPa | - | - | - | - |
| 1777498987 | 3.89° C | 62% | 1026 hPa | - | - | - | - |
| 1777498086 | 4.44° C | 61% | 1026.1 hPa | - | - | - | - |
| 1777497187 | 4.44° C | 60% | 1025.9 hPa | - | - | - | - |
| 1777496287 | 5° C | 59% | 1026 hPa | - | - | - | - |
| 1777495387 | 5° C | 57% | 1025.6 hPa | - | - | - | - |
| 1777494487 | 6.11° C | 55% | 1025.6 hPa | - | - | - | - |
| 1777493587 | 6.67° C | 53% | 1025.6 hPa | - | - | - | - |
* Rain since midnight (hover to see other rain measurements)
** Current wind speed in m/s (hover to see current wind gust speed)